Home > Weather > Sevierville > Past weeks

Flag for U.S.A. Weather for the Past 2 Weeks in Sevierville, Tennessee, U.S.A.

Now
31 °F

Overcast.


Feels Like: 31 °F
Forecast: 25 / 40 °F
Wind: No wind

Location: McGhee Tyson Airport

Current Time: Feb 12, 2016 at 5:01:13 AM

Latest Report: Feb 12, 2016 at 3:53 AM


Visibility: 10 mi

Pressure: 30.16 "Hg

Humidity: 64%

Dew point: 20 °F

Location of SeviervilleLocation

Historic Weather in Sevierville — Graph

°F

Sevierville Temperature Yesterday

Maximum temperature yesterday: 42 °F (at 3:53 PM)
Minimum temperature yesterday: 25 °F (at 12:53 AM)
Average temperature yesterday: 32 °F

High & Low Weather Summary for the Past Weeks

 TemperatureHumidityPressure
High75 °F (Feb 2, 3:53 PM)100% (Jan 28, 8:53 AM)30.47 "Hg (Jan 28, 8:53 AM)
Low19 °F (Feb 10, 7:53 AM)23% (Feb 6, 1:53 PM)29.67 "Hg (Feb 8, 1:53 PM)
Average42 °F63%30.04 "Hg
* Reported Jan 28 3:53 AM — Feb 12 3:53 AM, Sevierville, Weather by CustomWeather, © 2016

Note: Actual official high and low records may vary slightly from our data, if they occured in-between our weather recording intervals... More about our weather records

Advertising

Sevierville Weather History for the Previous 24 Hours

 ConditionsComfort  
Time TempWeatherWind HumidityBarometerVisibility
3:53 AM
Fri, Feb 12
31 °FOvercast.No wind64%30.16 "Hg10 mi
2:53 AM32 °FOvercast.5 mph59%30.19 "Hg10 mi
1:53 AM31 °FPassing clouds.8 mph61%30.18 "Hg10 mi
12:53 AM31 °FMostly cloudy.7 mph61%30.21 "Hg10 mi
11:53 PM
Thu, Feb 11
30 °FPassing clouds.5 mph61%30.25 "Hg10 mi
10:53 PM31 °FPassing clouds.7 mph64%30.26 "Hg10 mi
9:53 PM32 °FPassing clouds.10 mph59%30.27 "Hg10 mi
8:53 PM33 °FPassing clouds.5 mph58%30.25 "Hg10 mi
7:53 PM35 °FPassing clouds.3 mph52%30.25 "Hg10 mi
6:53 PM37 °FPassing clouds.5 mph50%30.24 "Hg10 mi
5:53 PM40 °FScattered clouds.No wind43%30.22 "Hg10 mi
3:53 PM42 °FScattered clouds.3 mph39%30.19 "Hg10 mi
2:53 PM41 °FScattered clouds.6 mph41%30.19 "Hg10 mi
1:53 PM38 °FPassing clouds.3 mph46%30.20 "Hg10 mi
12:53 PM38 °FScattered clouds.7 mph46%30.23 "Hg10 mi
11:53 AM36 °FPassing clouds.3 mph50%30.25 "Hg10 mi
10:53 AM32 °FPartly sunny.No wind59%30.26 "Hg10 mi
9:53 AM29 °FOvercast.3 mph66%30.26 "Hg10 mi
8:53 AM28 °FOvercast.6 mph69%30.24 "Hg10 mi
7:53 AM27 °FOvercast.3 mph72%30.22 "Hg10 mi
6:53 AM26 °FOvercast.No wind74%30.21 "Hg10 mi
5:53 AM26 °FOvercast.5 mph74%30.19 "Hg10 mi
Weather by CustomWeather, © 2016

See weather overviewHow to use our weather pages